7 * 24
多渠道服务支持
STARLINK-37075(NORAD编号68255)是美国SpaceX公司星链(Starlink)星座中的一颗二代低轨互联网通信卫星,运行于近地轨道,主要为全球提供高速低时延卫星互联网接入服务。2025年12月,该卫星突发异常,轨道高度骤降约4000米,随后与地面失去联系,产生少量空间碎片。SpaceX确认卫星大致保持完整但处于翻滚状态,推测异常由卫星内部问题引发,而非碰撞导致。目前该卫星已受控再入大气层,最终在大气层中完全烧毁,SpaceX联合美国太空部门持续监测碎片,对其他在轨卫星影响有限,这一事件也再次引发业界对空间轨道安全规范的讨论。
美国
(US)
| 数据来源 | 国际轨道数据 |
| 星历时间: | 2026-04-14T20:00:02+0800 8小时前 查看轨道信息 |
| 半长轴: | 6721.973km |
| 偏心率: | 0.0001361 |
| 轨道倾角: | 53.159° |
| 近地点辐角 | 79.840° |
| 升交点赤经 | 133.081° |
| 平近点角 | 128.294° |
| 近地点: | 342.921km |
| 远地点: | 344.751km |
| 周期: | 91.412分钟 |
| 每日圈数: | 15.752795 |